User: anonymous   Login
Location: Amherst
(42.5000°N, 72.5000°W)
Time: 11:53:06
(UTC-04:00)
Language:

ISS - Orbit

View from above orbital plane
View from above orbital plane
View from above satellite
View from above satellite

Ground track
Ground track

The orbit data is extracted from the following two-line orbital elements,

1 25544U 98067A   18143.05793873  .00016717  00000-0  10270-3 0  9028
2 25544  51.6362 143.9847 0003752 112.2132 247.9419 15.54055122 34609
Epoch (UTC): 23 May 2018 01:23:25
Eccentricity: 0.0003752
inclination: 51.6362°
perigee height: 402 km
apogee height: 407 km
right ascension of ascending node: 143.9847°
argument of perigee: 112.2132°
revolutions per day: 15.54055122
mean anomaly at epoch: 247.9419°
orbit number at epoch: 3460

The dashed part of the orbit path shows where the satellite is in the earth's shadow,  

DLR